This is the latest recevied weather packets stored in our database for station/object 4S6DRJ-13. If no packets are shown the sender has not sent any weather packets the latest 10 day(s).
| Time | Temp. | Humidity | Pressure | Rain* | Wind** | Luminosity | Snow |
|---|---|---|---|---|---|---|---|
| 1787734156 | 30° C | 74% | 1008.8 hPa | 0 mm | 1.34 m/s, 229° | 759 W/m² | - |
| 1787734093 | 30° C | 75% | 1008.9 hPa | 0 mm | 0.89 m/s, 235° | 564 W/m² | - |
| 1787734032 | 30° C | 75% | 1008.8 hPa | 0 mm | 0.89 m/s, 297° | 690 W/m² | - |
| 1787733971 | 30° C | 74% | 1008.9 hPa | 0 mm | 0.89 m/s, 190° | 675 W/m² | - |
| 1787733911 | 30° C | 75% | 1008.9 hPa | 0 mm | 0.89 m/s, 114° | 697 W/m² | - |
| 1787733849 | 30° C | 75% | 1009 hPa | 0 mm | 1.79 m/s, 252° | 668 W/m² | - |
| 1787733788 | 30° C | 74% | 1008.9 hPa | 0 mm | 0.89 m/s, 307° | 649 W/m² | - |
| 1787733727 | 30° C | 74% | 1008.8 hPa | 0 mm | 1.79 m/s, 104° | 677 W/m² | - |
| 1787733666 | 30° C | 74% | 1009 hPa | 0 mm | 1.79 m/s, 352° | 660 W/m² | - |
| 1787733605 | 30° C | 74% | 1008.8 hPa | 0 mm | 2.24 m/s, 287° | 656 W/m² | - |
| 1787733544 | 30° C | 74% | 1009 hPa | 0 mm | 2.68 m/s, 195° | 636 W/m² | - |
| 1787733483 | 30° C | 75% | 1008.8 hPa | 0 mm | 1.79 m/s, 145° | 668 W/m² | - |
| 1787733422 | 30° C | 74% | 1009 hPa | 0 mm | 3.13 m/s, 220° | 657 W/m² | - |
| 1787733361 | 30° C | 75% | 1009.1 hPa | 0 mm | 1.79 m/s, 254° | 646 W/m² | - |
| 1787733300 | 30° C | 74% | 1009 hPa | 0 mm | 2.68 m/s, 229° | 618 W/m² | - |
| 1787733239 | 30° C | 74% | 1009.1 hPa | 0 mm | 1.34 m/s, 274° | 625 W/m² | - |
| 1787733177 | 30° C | 75% | 1009.1 hPa | 0 mm | 0.89 m/s, 282° | 615 W/m² | - |
| 1787733117 | 30° C | 75% | 1009.1 hPa | 0 mm | 0.89 m/s, 230° | 631 W/m² | - |
| 1787733056 | 30° C | 75% | 1009 hPa | 0 mm | 1.79 m/s, 206° | 607 W/m² | - |
| 1787732994 | 30° C | 75% | 1009.1 hPa | 0 mm | 0.89 m/s, 243° | 580 W/m² | - |
| 1787732933 | 30° C | 74% | 1009.2 hPa | 0 mm | 1.34 m/s, 262° | 571 W/m² | - |
| 1787732873 | 30° C | 74% | 1009.2 hPa | 0 mm | 2.24 m/s, 233° | 566 W/m² | - |
| 1787732811 | 30.56° C | 73% | 1009.3 hPa | 0 mm | 1.79 m/s, 308° | 561 W/m² | - |
| 1787732750 | 30.56° C | 73% | 1009.1 hPa | 0 mm | 1.34 m/s, 284° | 558 W/m² | - |
| 1787732690 | 30.56° C | 73% | 1009.2 hPa | 0 mm | 2.68 m/s, 212° | 522 W/m² | - |
* Rain latest hour (hover to see other rain measurements)
** Current wind speed in m/s (hover to see current wind gust speed)